| time (UTC) | temp C | wind direction | speed KPH | gust KPH | rain 1hr cm | rain 24hr cm | rain mn cm | humidity % | barometer mb |
| 20260508064550 | 10 | 0.0 | 0.0 | 0.00 | 0.00 | 0.00 | 72 | 1012.7 | |
| 20260508063056 | 10 | 0.0 | 0.0 | 0.00 | 0.00 | 0.00 | 73 | 1012.6 | |
| 20260508061552 | 9 | 0.0 | 0.0 | 0.00 | 0.00 | 0.00 | 78 | 1012.5 | |
| 20260508060052 | 9 | 0.0 | 0.0 | 0.00 | 0.00 | 0.00 | 72 | 1012.6 | |
| 20260508054547 | 9 | 0.0 | 0.0 | 0.00 | 0.00 | 0.00 | 68 | 1012.5 | |
| 20260508053045 | 10 | 0.0 | 0.0 | 0.00 | 0.00 | 0.00 | 69 | 1012.5 | |
| 20260508051543 | 10 | 0.0 | 0.0 | 0.00 | 0.00 | 0.00 | 67 | 1012.4 | |
| 20260508050048 | 10 | 0.0 | 0.0 | 0.00 | 0.00 | 0.00 | 67 | 1012.3 | |
| 20260508044545 | 10 | 0.0 | 0.0 | 0.00 | 0.03 | 0.00 | 68 | 1012.1 | |
| 20260508043044 | 10 | 0.0 | 0.0 | 0.00 | 0.03 | 0.00 | 69 | 1012.1 | |
| 20260508041546 | 10 | 0.0 | 0.0 | 0.00 | 0.03 | 0.00 | 71 | 1011.9 | |
| 20260508040051 | 10 | 0.0 | 0.0 | 0.00 | 0.03 | 0.00 | 71 | 1011.6 | |
| 20260508034548 | 10 | 0.0 | 0.0 | 0.00 | 0.03 | 0.03 | 72 | 1011.6 | |
| 20260508033047 | 10 | 0.0 | 0.0 | 0.00 | 0.03 | 0.03 | 74 | 1011.5 | |
| 20260508031544 | 10 | 0.0 | 0.0 | 0.00 | 0.03 | 0.03 | 77 | 1011.4 | |
| 20260508030043 | 10 | 0.0 | 0.0 | 0.00 | 0.03 | 0.03 | 78 | 1011.5 | |
| 20260508024549 | 10 | 0.0 | 0.0 | 0.00 | 0.03 | 0.03 | 78 | 1011.3 | |
| 20260508023049 | 10 | 0.0 | 0.0 | 0.00 | 0.03 | 0.03 | 78 | 1011.3 | |
| 20260508021550 | 10 | 0.0 | 0.0 | 0.00 | 0.03 | 0.03 | 78 | 1011.3 | |
| 20260508020046 | 10 | 0.0 | 0.0 | 0.00 | 0.03 | 0.03 | 78 | 1011.2 | |
| 20260508014547 | 10 | 0.0 | 0.0 | 0.00 | 0.03 | 0.03 | 77 | 1011.3 | |
| 20260508013046 | 11 | 0.0 | 0.0 | 0.00 | 0.03 | 0.03 | 76 | 1011.1 | |
| 20260508011541 | 11 | 0.0 | 0.0 | 0.00 | 0.03 | 0.03 | 75 | 1011.0 | |
| 20260508010046 | 11 | 0.0 | 0.0 | 0.00 | 0.03 | 0.03 | 74 | 1010.7 | |
| 20260508004548 | 11 | 0.0 | 0.0 | 0.00 | 0.03 | 0.03 | 73 | 1010.4 | |
| 20260508003045 | 12 | 0.0 | 0.0 | 0.00 | 0.03 | 0.03 | 71 | 1010.2 | |
| 20260508001544 | 12 | 0.0 | 0.0 | 0.00 | 0.03 | 0.03 | 70 | 1010.1 | |
| 20260508000051 | 12 | 0.0 | 0.0 | 0.00 | 0.03 | 0.03 | 69 | 1010.0 | |
| 20260507234546 | 13 | 0.0 | 0.0 | 0.00 | 0.03 | 0.03 | 68 | 1009.8 | |
| 20260507233048 | 13 | 0.0 | 0.0 | 0.00 | 0.03 | 0.03 | 67 | 1009.6 | |
| 20260507231546 | 13 | 0.0 | 0.0 | 0.00 | 0.03 | 0.03 | 66 | 1009.4 | |
| 20260507230051 | 13 | 0.0 | 0.0 | 0.00 | 0.03 | 0.03 | 66 | 1009.3 | |
| 20260507224545 | 14 | 0.0 | 0.0 | 0.00 | 0.03 | 0.03 | 65 | 1009.1 | |
| 20260507223042 | 15 | 0.0 | 0.0 | 0.00 | 0.03 | 0.03 | 62 | 1008.9 | |
| 20260507221547 | 15 | 0.0 | 0.0 | 0.00 | 0.03 | 0.03 | 61 | 1008.8 | |
| 20260507220045 | 15 | 0.0 | 0.0 | 0.00 | 0.03 | 0.03 | 60 | 1008.8 | |
| 20260507214600 | 15 | 0.0 | 0.0 | 0.00 | 0.03 | 0.03 | 59 | 1008.9 | |
| 20260507213045 | 15 | 0.0 | 0.0 | 0.00 | 0.03 | 0.03 | 59 | 1008.9 | |
| 20260507211549 | 15 | 0.0 | 0.0 | 0.00 | 0.03 | 0.03 | 61 | 1009.0 | |
| 20260507210058 | 15 | 0.0 | 0.0 | 0.00 | 0.03 | 0.03 | 60 | 1008.9 | |
| 20260507204548 | 16 | 0.0 | 0.0 | 0.00 | 0.03 | 0.03 | 60 | 1008.9 | |
| 20260507203102 | 16 | 0.0 | 0.0 | 0.00 | 0.03 | 0.03 | 58 | 1008.8 | |
| 20260507201555 | 16 | 0.0 | 0.0 | 0.00 | 0.03 | 0.03 | 58 | 1008.9 | |
| 20260507194550 | 16 | 0.0 | 0.0 | 0.00 | 0.03 | 0.03 | 53 | 1008.8 | |
| 20260507193051 | 16 | 0.0 | 0.0 | 0.00 | 0.03 | 0.03 | 54 | 1009.1 | |
| 20260507191547 | 17 | 0.0 | 0.0 | 0.00 | 0.03 | 0.03 | 52 | 1009.4 | |
| 20260507190057 | 16 | 0.0 | 0.0 | 0.00 | 0.03 | 0.03 | 51 | 1009.5 | |
| 20260507184550 | 15 | 0.0 | 0.0 | 0.00 | 0.03 | 0.03 | 51 | 1009.4 | |
| 20260507183049 | 15 | 0.0 | 0.0 | 0.00 | 0.03 | 0.03 | 51 | 1009.7 | |
| 20260507181543 | 15 | 0.0 | 0.0 | 0.00 | 0.03 | 0.03 | 54 | 1010.2 | |
| 20260507180050 | 14 | 0.0 | 0.0 | 0.00 | 0.03 | 0.03 | 54 | 1010.3 | |
| 20260507174549 | 13 | 0.0 | 0.0 | 0.00 | 0.03 | 0.03 | 54 | 1010.3 | |
| 20260507173045 | 13 | 0.0 | 0.0 | 0.00 | 0.03 | 0.03 | 54 | 1010.9 | |
| 20260507171544 | 13 | 0.0 | 0.0 | 0.00 | 0.03 | 0.03 | 55 | 1011.3 | |
| 20260507170051 | 13 | 0.0 | 0.0 | 0.00 | 0.03 | 0.03 | 56 | 1011.4 | |
| 20260507164556 | 12 | 0.0 | 0.0 | 0.00 | 0.03 | 0.03 | 57 | 1011.6 | |
| 20260507163044 | 12 | 0.0 | 0.0 | 0.00 | 0.03 | 0.03 | 57 | 1011.7 | |
| 20260507161545 | 12 | 0.0 | 0.0 | 0.00 | 0.03 | 0.03 | 56 | 1012.0 | |
| 20260507160057 | 12 | 0.0 | 0.0 | 0.00 | 0.03 | 0.03 | 60 | 1012.1 | |
| 20260507154551 | 12 | 0.0 | 0.0 | 0.00 | 0.08 | 0.03 | 60 | 1012.2 | |
| 20260507153048 | 12 | 0.0 | 0.0 | 0.00 | 0.08 | 0.03 | 61 | 1012.4 | |
| 20260507151548 | 12 | 0.0 | 0.0 | 0.00 | 0.08 | 0.03 | 62 | 1012.4 | |
| 20260507150048 | 11 | 0.0 | 0.0 | 0.00 | 0.08 | 0.03 | 66 | 1012.7 | |
| 20260507144545 | 11 | 0.0 | 0.0 | 0.00 | 0.18 | 0.03 | 67 | 1012.9 | |
| 20260507143057 | 11 | 0.0 | 0.0 | 0.00 | 0.18 | 0.03 | 67 | 1013.0 | |
| 20260507141552 | 11 | 0.0 | 0.0 | 0.00 | 0.18 | 0.03 | 66 | 1013.1 | |
| 20260507140043 | 11 | 0.0 | 0.0 | 0.00 | 0.18 | 0.03 | 64 | 1013.1 | |
| 20260507134543 | 11 | 0.0 | 0.0 | 0.00 | 0.46 | 0.03 | 63 | 1013.2 | |
| 20260507133101 | 11 | 0.0 | 0.0 | 0.00 | 0.46 | 0.03 | 66 | 1013.3 | |
| 20260507131551 | 11 | 0.0 | 0.0 | 0.00 | 0.46 | 0.03 | 68 | 1013.1 | |
| 20260507130104 | 11 | 0.0 | 0.0 | 0.00 | 0.46 | 0.03 | 70 | 1013.2 | |
| 20260507124547 | 11 | 0.0 | 0.0 | 0.00 | 0.51 | 0.03 | 69 | 1013.0 | |
| 20260507123042 | 11 | 0.0 | 0.0 | 0.00 | 0.51 | 0.03 | 72 | 1013.3 | |
| 20260507121604 | 11 | 0.0 | 0.0 | 0.00 | 0.51 | 0.03 | 73 | 1012.9 | |
| 20260507120057 | 11 | 0.0 | 0.0 | 0.00 | 0.51 | 0.03 | 76 | 1013.0 | |
| 20260507114626 | 11 | 0.0 | 0.0 | 0.00 | 0.51 | 0.03 | 78 | 1012.7 | |
| 20260507113045 | 11 | 0.0 | 0.0 | 0.00 | 0.51 | 0.03 | 74 | 1012.4 | |
| 20260507111547 | 12 | 0.0 | 0.0 | 0.00 | 0.51 | 0.03 | 62 | 1012.4 | |
| 20260507110046 | 12 | 0.0 | 0.0 | 0.00 | 0.51 | 0.03 | 46 | 1012.3 | |
| 20260507104548 | 12 | 0.0 | 0.0 | 0.00 | 0.51 | 0.03 | 47 | 1012.2 | |
| 20260507103045 | 12 | 0.0 | 0.0 | 0.00 | 0.51 | 0.03 | 48 | 1012.3 | |
| 20260507101547 | 12 | 0.0 | 0.0 | 0.00 | 0.51 | 0.03 | 45 | 1011.9 | |
| 20260507100048 | 12 | 0.0 | 0.0 | 0.00 | 0.51 | 0.03 | 48 | 1011.9 | |
| 20260507094544 | 12 | 0.0 | 0.0 | 0.00 | 0.51 | 0.03 | 49 | 1012.0 | |
| 20260507093050 | 12 | 0.0 | 0.0 | 0.00 | 0.51 | 0.03 | 50 | 1011.8 | |
| 20260507091550 | 12 | 0.0 | 0.0 | 0.00 | 0.51 | 0.03 | 52 | 1011.6 | |
| 20260507090048 | 12 | 0.0 | 0.0 | 0.00 | 0.51 | 0.03 | 52 | 1011.8 | |
| 20260507084556 | 12 | 0.0 | 0.0 | 0.00 | 0.51 | 0.03 | 55 | 1011.5 | |
| 20260507083054 | 12 | 0.0 | 0.0 | 0.00 | 0.51 | 0.03 | 56 | 1011.6 | |
| 20260507081545 | 12 | 0.0 | 0.0 | 0.00 | 0.51 | 0.03 | 58 | 1011.3 | |
| 20260507080105 | 12 | 0.0 | 0.0 | 0.00 | 0.51 | 0.03 | 57 | 1010.9 | |
| 20260507074550 | 12 | 0.0 | 0.0 | 0.00 | 0.51 | 0.03 | 56 | 1010.9 | |
| 20260507073048 | 12 | 0.0 | 0.0 | 0.00 | 0.51 | 0.03 | 57 | 1010.5 | |
| 20260507071546 | 12 | 0.0 | 0.0 | 0.00 | 0.51 | 0.03 | 54 | 1010.8 | |
| 20260507070045 | 12 | 0.0 | 0.0 | 0.00 | 0.51 | 0.03 | 52 | 1010.7 |